• In Hungary
  • List of Countries
  • For 7 days
  • Water Temperature
  • Satellite Maps
  • Weather Map
  • News
  • Weather Widgets
  • user-avatar
    Login

    Hourly Weather Stanyshivka

    Today, 22 October, Sunday

    Time Temperature Precipitation Wind Pressure Humidity
    00:00 +7°C° 0 mm 4 mps 740 mmHg 93%
    01:00 +7°C° 0 mm 4 mps 741 mmHg 91%
    02:00 +6°C° 0 mm 5 mps 741 mmHg 90%
    03:00 +6°C° 0 mm 5 mps 741 mmHg 88%
    04:00 +5°C° 0 mm 5 mps 742 mmHg 87%
    05:00 +3°C° 0 mm 5 mps 742 mmHg 86%
    06:00 +4°C° 0 mm 4 mps 743 mmHg 85%
    07:00 +4°C° 0 mm 4 mps 743 mmHg 85%
    08:00 +4°C° 0 mm 4 mps 744 mmHg 84%
    09:00 +5°C° 0 mm 4 mps 744 mmHg 80%
    10:00 +5°C° 0 mm 4 mps 745 mmHg 75%
    11:00 +6°C° 0 mm 4 mps 745 mmHg 71%
    12:00 +8°C° 0 mm 3 mps 745 mmHg 67%
    13:00 +8°C° 0 mm 3 mps 745 mmHg 63%
    14:00 +9°C° 0 mm 3 mps 745 mmHg 60%
    15:00 +8°C° 0 mm 3 mps 745 mmHg 63%
    16:00 +7°C° 0 mm 2 mps 745 mmHg 66%
    17:00 +6°C° 0 mm 2 mps 745 mmHg 70%
    18:00 +5°C° 0 mm 2 mps 745 mmHg 73%
    19:00 +5°C° 0 mm 2 mps 745 mmHg 75%
    20:00 +3°C° 0 mm 3 mps 745 mmHg 78%
    21:00 +3°C° 0 mm 3 mps 745 mmHg 78%
    22:00 +2°C° 0 mm 3 mps 745 mmHg 79%
    23:00 +2°C° 0 mm 3 mps 745 mmHg 80%

    Tomorrow, 23 October, Monday

    Time Temperature Precipitation Wind Pressure Humidity
    00:00 +2°C° 0 mm 3 mps 745 mmHg 80%
    01:00 +1°C° 0 mm 3 mps 745 mmHg 79%
    02:00 +1°C° 0 mm 3 mps 745 mmHg 79%
    03:00 +1°C° 0 mm 3 mps 745 mmHg 79%
    04:00 +1°C° 0 mm 3 mps 745 mmHg 78%
    05:00 +1°C° 0 mm 3 mps 744 mmHg 78%
    06:00 0°C° 0 mm 4 mps 744 mmHg 76%
    07:00 0°C° 0 mm 4 mps 744 mmHg 75%
    08:00 +1°C° 0 mm 4 mps 744 mmHg 73%
    09:00 +2°C° 0 mm 5 mps 744 mmHg 68%
    10:00 +5°C° 0 mm 5 mps 744 mmHg 63%
    11:00 +6°C° 0 mm 5 mps 744 mmHg 59%
    12:00 +7°C° 0 mm 5 mps 744 mmHg 56%
    13:00 +7°C° 0 mm 5 mps 743 mmHg 54%
    14:00 +8°C° 0 mm 5 mps 743 mmHg 52%
    15:00 +7°C° 0 mm 5 mps 743 mmHg 54%
    16:00 +6°C° 0 mm 4 mps 743 mmHg 56%
    17:00 +5°C° 0 mm 4 mps 743 mmHg 58%
    18:00 +5°C° 0 mm 4 mps 743 mmHg 59%
    19:00 +3°C° 0 mm 5 mps 743 mmHg 59%
    20:00 +3°C° 0 mm 5 mps 744 mmHg 59%
    21:00 +3°C° 0 mm 5 mps 744 mmHg 58%
    22:00 +3°C° 0 mm 5 mps 744 mmHg 57%
    23:00 +3°C° 0 mm 5 mps 744 mmHg 56%

    Day after tomorrow, 24 October, Tuesday

    Time Temperature Precipitation Wind Pressure Humidity
    00:00 +2°C° 0 mm 5 mps 744 mmHg 56%
    01:00 +2°C° 0 mm 5 mps 744 mmHg 55%
    02:00 +2°C° 0 mm 5 mps 745 mmHg 54%
    03:00 +2°C° 0 mm 5 mps 745 mmHg 54%
    04:00 +2°C° 0 mm 5 mps 745 mmHg 55%
    05:00 +2°C° 0 mm 5 mps 745 mmHg 55%
    06:00 +2°C° 0.1 mm 5 mps 746 mmHg 55%
    07:00 +2°C° 0.1 mm 5 mps 746 mmHg 56%
    08:00 +2°C° 0.1 mm 5 mps 747 mmHg 56%
    09:00 +2°C° 0 mm 5 mps 747 mmHg 56%
    10:00 +2°C° 0 mm 5 mps 747 mmHg 55%
    11:00 +3°C° 0 mm 5 mps 748 mmHg 54%
    12:00 +3°C° 0 mm 5 mps 748 mmHg 53%
    13:00 +3°C° 0 mm 5 mps 748 mmHg 53%
    14:00 +5°C° 0 mm 5 mps 748 mmHg 52%
    15:00 +4°C° 0 mm 4 mps 749 mmHg 53%
    16:00 +4°C° 0 mm 4 mps 749 mmHg 54%
    17:00 +4°C° 0 mm 4 mps 749 mmHg 55%
    18:00 +4°C° 0 mm 4 mps 749 mmHg 55%
    19:00 +3°C° 0 mm 4 mps 750 mmHg 56%
    20:00 +3°C° 0 mm 3 mps 750 mmHg 56%
    21:00 +3°C° 0.1 mm 3 mps 750 mmHg 58%
    22:00 +3°C° 0.1 mm 3 mps 750 mmHg 59%
    23:00 +3°C° 0.1 mm 2 mps 751 mmHg 61%

    25 October, Wednesday

    Time Temperature Precipitation Wind Pressure Humidity
    00:00 +3°C° 0 mm 2 mps 751 mmHg 62%
    01:00 +2°C° 0 mm 2 mps 751 mmHg 64%
    02:00 +2°C° 0 mm 2 mps 751 mmHg 66%
    03:00 +1°C° 0 mm 2 mps 751 mmHg 68%
    04:00 +1°C° 0 mm 2 mps 751 mmHg 69%
    05:00 -1°C° 0 mm 2 mps 751 mmHg 71%
    06:00 +1°C° 0 mm 2 mps 751 mmHg 70%
    07:00 +1°C° 0 mm 2 mps 751 mmHg 69%
    08:00 +1°C° 0 mm 2 mps 751 mmHg 68%
    09:00 +3°C° 0 mm 2 mps 752 mmHg 63%
    10:00 +4°C° 0 mm 2 mps 752 mmHg 57%
    11:00 +6°C° 0 mm 2 mps 752 mmHg 51%
    12:00 +6°C° 0 mm 2 mps 752 mmHg 50%
    13:00 +7°C° 0 mm 2 mps 751 mmHg 48%
    14:00 +7°C° 0 mm 2 mps 751 mmHg 46%
    15:00 +6°C° 0 mm 2 mps 751 mmHg 51%
    16:00 +5°C° 0 mm 2 mps 751 mmHg 55%
    17:00 +4°C° 0 mm 2 mps 751 mmHg 60%
    18:00 +3°C° 0 mm 2 mps 751 mmHg 63%
    19:00 +3°C° 0 mm 2 mps 751 mmHg 65%
    20:00 +2°C° 0 mm 2 mps 751 mmHg 68%
    21:00 +2°C° 0 mm 2 mps 751 mmHg 70%
    22:00 +2°C° 0 mm 2 mps 751 mmHg 71%
    23:00 +2°C° 0 mm 2 mps 751 mmHg 73%

    26 October, Thursday

    Time Temperature Precipitation Wind Pressure Humidity
    00:00 +1°C° 0 mm 3 mps 750 mmHg 72%
    01:00 +1°C° 0 mm 3 mps 750 mmHg 71%
    02:00 +2°C° 0 mm 3 mps 750 mmHg 71%
    03:00 +1°C° 0 mm 4 mps 749 mmHg 69%
    04:00 +3°C° 0 mm 4 mps 748 mmHg 67%
    05:00 +2°C° 0 mm 5 mps 747 mmHg 65%
    06:00 +3°C° 0.1 mm 6 mps 747 mmHg 66%
    07:00 +3°C° 0.1 mm 6 mps 746 mmHg 68%
    08:00 +4°C° 0.1 mm 7 mps 746 mmHg 69%
    09:00 +4°C° 0.7 mm 6 mps 746 mmHg 75%
    10:00 +5°C° 0.7 mm 6 mps 746 mmHg 80%
    11:00 +5°C° 0.7 mm 6 mps 745 mmHg 86%
    12:00 +8°C° 0.1 mm 5 mps 745 mmHg 86%
    13:00 +9°C° 0.1 mm 5 mps 745 mmHg 86%
    14:00 +10°C° 0.1 mm 5 mps 745 mmHg 86%
    15:00 +11°C° 0.1 mm 4 mps 744 mmHg 88%
    16:00 +11°C° 0.1 mm 4 mps 744 mmHg 90%
    17:00 +10°C° 0.1 mm 3 mps 744 mmHg 92%
    18:00 +10°C° 0.1 mm 4 mps 744 mmHg 92%
    19:00 +10°C° 0.1 mm 4 mps 744 mmHg 92%
    20:00 +8°C° 0.1 mm 5 mps 744 mmHg 92%
    21:00 +8°C° 0 mm 5 mps 744 mmHg 90%
    22:00 +8°C° 0 mm 5 mps 744 mmHg 89%
    23:00 +8°C° 0 mm 5 mps 743 mmHg 87%

    27 October, Friday

    Time Temperature Precipitation Wind Pressure Humidity
    00:00 +8°C° 0 mm 5 mps 743 mmHg 85%
    01:00 +8°C° 0 mm 5 mps 743 mmHg 83%
    02:00 +7°C° 0 mm 5 mps 743 mmHg 81%
    03:00 +7°C° 0 mm 4 mps 743 mmHg 83%
    04:00 +7°C° 0 mm 4 mps 742 mmHg 84%
    05:00 +6°C° 0 mm 4 mps 742 mmHg 86%
    06:00 +6°C° 0 mm 4 mps 741 mmHg 86%
    07:00 +6°C° 0 mm 4 mps 741 mmHg 87%
    08:00 +7°C° 0 mm 4 mps 740 mmHg 88%
    09:00 +7°C° 0.2 mm 4 mps 740 mmHg 87%
    10:00 +8°C° 0.2 mm 4 mps 739 mmHg 86%
    11:00 +8°C° 0.2 mm 4 mps 739 mmHg 86%
    12:00 +8°C° 1 mm 4 mps 738 mmHg 88%
    13:00 +8°C° 1 mm 4 mps 737 mmHg 89%
    14:00 +8°C° 1 mm 4 mps 736 mmHg 91%
    15:00 +10°C° 0.4 mm 4 mps 735 mmHg 91%
    16:00 +9°C° 0.4 mm 5 mps 734 mmHg 90%
    17:00 +9°C° 0.4 mm 5 mps 734 mmHg 90%
    18:00 +9°C° 0.5 mm 5 mps 733 mmHg 91%
    19:00 +9°C° 0.5 mm 5 mps 733 mmHg 92%
    20:00 +8°C° 0.5 mm 4 mps 732 mmHg 93%
    21:00 +8°C° 0.7 mm 5 mps 732 mmHg 92%
    22:00 +7°C° 0.7 mm 5 mps 732 mmHg 91%
    23:00 +6°C° 0.7 mm 5 mps 731 mmHg 90%
    Show more